Location: Recife
(8.0585°S, 34.8848°W)
Time: 22:37:26
(UTC-03:00)

A-11 Canister half - Pass Details

Date: 15 April 2026
Orbit: 1515 x 1684 km, 47.2° (Epoch: 12 May)

Event Time Altitude Azimuth Distance (km) Brightness Sun altitude
Rises 12:37:31 0° 345° (NNW) 4,868 11.9 63.5°
Reaches altitude 10° 12:41:18 10° 357° (N) 3,903 11.6 62.8°
Maximum altitude 12:49:27 28° 52° (NE) 2,764 10.7 61.3°
Drops below altitude 10° 12:57:38 10° 106° (ESE) 3,946 11.0 59.7°
Sets 13:01:25 0° 117° (ESE) 4,931 11.3 58.9°
